Location: Buckland
(65.9785°N, 161.1281°W)
Time: 07:37:15
(UTC+00:00)

Transit 2A Rocket - Pass Details

Date: 04 December 2020
Orbit: 592 x 910 km, 66.7° (Epoch: 21 January)

Event Time Altitude Azimuth Distance (km) Brightness Sun altitude
Exits shadow 16:51:58 36° 284° (WNW) 1,195 5.4 -18.6°
Maximum altitude 16:54:12 89° 197° (SSW) 741 4.8 -18.4°
Drops below altitude 10° 16:59:04 10° 107° (ESE) 2,136 8.6 -17.9°
Sets 17:01:17 0° 108° (ESE) 3,005 9.8 -17.7°
